Volver al catálogo

SL-14 DEB

ActivoPO
NORAD 45268·DEBRIS·🇷🇺 Russia

Lanzado Aug 15, 1991 desde Plesetsk Cosmodrome

Loading…

Próximos Pases (próximas 24 horas)

TLE

ActualizadoSource: Space-Track

Época: Sep 14, 2026, 11:13 UTC

1 45268U 91056E   26257.46745732 -.00000245  00000-0 -68307-3 0  9996
2 45268  82.5514  80.4068 0009465 346.1966  13.8895 13.15675180316301

Sigue SL-14 DEB en tiempo real con AllMySat

Download on the App Store